| Date | Temp | Humidity | Rainfall | Dew Point | Wind Direction | Wind Speed | Wind Pressure | Condition | Visibility |
|---|---|---|---|---|---|---|---|---|---|
| 2025-06-05 13:00:20 | 32 | 59 | 23 | 340 | 5.7 | 1010 | Partly Cloudy (Day) | 20KM | |
| 2025-06-05 12:01:40 | 33 | 48 | 20 | 240 | 3.8 | 1011 | Partly Cloudy (Day) | 20KM | |
| 2025-06-05 11:01:22 | 32 | 52 | 21 | 210 | 5.7 | 1011 | Partly Cloudy (Day) | 20KM | |
| 2025-06-05 10:00:51 | 30 | 65 | 0.0 | 23 | 210 | 7.6 | 1011 | Cloudy | 20 KM |
| 2025-06-05 09:01:44 | 28 | 74 | 0.0 | 23 | 190 | 5.7 | 1011 | Cloudy | 20 KM |
| 2025-06-05 07:58:30 | 27 | 83 | 0 | 24 | 210 | 9.5 | 1011 | Cloudy | 20 KM |
| 2025-06-05 06:58:41 | 26 | 88 | 0 | 23 | 210 | 5.7 | 1011 | Partly Cloudy (Day) | 10 KM |
| 2025-06-05 05:58:34 | 25 | 91 | 0 | 24 | 150 | 3.8 | 1010 | Partly Cloudy (Day) | 10 KM |
| 2025-06-05 04:58:25 | 25 | 95 | 0 | 24 | 130 | 1.9 | 1010 | Partly Cloudy (Night) | 10 KM |
| 2025-06-05 04:47:34 | 25 | 93 | 0 | 24 | 160 | 5.7 | 1010 | Partly Cloudy (Night) | 10 KM |
| 2025-06-05 02:59:13 | 25 | 92 | 0 | 24 | 220 | 7.6 | 1010 | Partly Cloudy (Night) | 10 KM |
| 2025-06-05 01:59:41 | 26 | 88 | 24 | 190 | 9.5 | 1011 | Partly Cloudy (Night) | 10 KM | |
| 2025-06-05 00:59:11 | 26 | 90 | 25 | 220 | 7.6 | 1011 | Partly Cloudy (Night) | 10 KM | |
| 2025-06-05 00:00:40 | 27 | 89 | 25 | 230 | 7.6 | 1012 | Partly Cloudy (Night) | 10 KM | |
| 2025-06-04 22:59:27 | 27 | 88 | 25 | 220 | 5.7 | 1011 | Partly Cloudy (Night) | 10 KM | |
| 2025-06-04 22:00:21 | 27 | 87 | 25 | 210 | 1.9 | 1011 | Partly Cloudy (Night) | 10 KM | |
| 2025-06-04 21:00:04 | 28 | 84 | 25 | 170 | 3.8 | 1011 | Partly Cloudy (Night) | 10KM | |
| 2025-06-04 20:01:45 | 28 | 79 | 24 | 220 | 5.7 | 1010 | Partly Cloudy (Night) | 10KM | |
| 2025-06-04 19:02:07 | 29 | 73 | 24 | 170 | 3.8 | 1009 | Partly Cloudy (Night) | 10km | |
| 2025-06-04 17:59:09 | 30 | 66 | 23 | 190 | 7.6 | 1009 | Cloudy | 15KM | |
| 2025-06-04 17:01:25 | 31 | 63 | 24 | 18 | 11.4 | 1008 | Cloudy | 20KM | |
| 2025-06-04 16:00:52 | 30 | 66 | 23 | 170 | 9.5 | 1008 | Cloudy | 15KM | |
| 2025-06-04 15:06:05 | 31 | 62 | 23 | 190 | 17.1 | 1009 | Distant showers | 15KM | |
| 2025-06-04 14:04:09 | 30.6 | 70 | 23 | 180 | 15.2 | 1010 | Distant showers | 15KM | |
| 2025-06-04 12:58:59 | 28 | 74 | 0 | 23 | 190 | 17.1 | 1011 | Cloudy | 20 KM |